Date,TemperatureHighF,TemperatureAvgF,TemperatureLowF,DewpointHighF,DewpointAvgF,DewpointLowF,HumidityHigh,HumidityAvg,HumidityLow,PressureMaxIn,PressureMinIn,WindSpeedMaxMPH,WindSpeedAvgMPH,GustSpeedMaxMPH,PrecipitationSumIn
2013-1-1,43.6,39.3,35.6,39.7,36.6,33.5,94,90,86,30.06,29.51,7,4,15,0.00
2013-1-2,53.4,49.6,42.4,51.4,47.9,40.0,96,94,91,30.25,30.04,7,5,16,0.00
2013-1-3,53.7,52.1,50.9,51.2,50.1,48.4,96,93,90,30.50,30.25,7,5,14,0.00
2013-1-4,50.8,49.7,46.4,48.3,47.1,43.9,93,91,87,30.52,30.41,9,6,22,0.00
2013-1-5,52.3,50.5,47.1,50.1,48.0,45.4,95,91,88,30.41,30.32,10,6,24,0.00
2013-1-6,52.1,49.6,44.7,49.6,47.1,43.4,96,91,86,30.41,30.18,8,5,18,0.00
2013-1-7,52.1,50.8,48.9,50.4,49.1,46.7,95,94,91,30.17,29.98,12,6,20,0.13
2013-1-8,52.8,47.5,38.9,51.3,45.5,37.3,95,93,85,30.23,29.96,9,3,21,0.03
2013-1-9,43.9,36.5,31.9,39.4,34.4,29.9,96,92,83,30.22,30.02,1,0,4,0.01
2013-1-10,45.3,39.1,30.3,44.0,36.9,28.8,96,92,87,30.03,29.89,8,1,13,0.03
2013-1-11,48.0,42.0,36.2,44.8,39.4,34.4,94,90,86,30.02,29.76,5,1,10,0.00
2013-1-12,44.5,41.8,32.9,42.0,38.9,31.1,93,90,85,30.02,29.72,3,1,9,0.00
2013-1-13,39.3,34.5,29.0,38.2,33.1,27.5,97,95,91,30.14,30.02,3,1,8,0.03
2013-1-14,42.9,38.9,34.6,39.7,37.1,32.9,97,93,86,30.08,29.86,9,4,17,0.07
2013-1-15,39.3,34.7,30.6,36.3,32.9,29.3,96,93,88,29.91,29.70,2,0,6,0.01
2013-1-16,43.8,40.6,39.3,41.3,37.9,36.2,93,90,85,29.81,29.68,6,2,13,0.09
2013-1-17,47.8,45.0,42.2,44.9,42.7,40.9,96,92,86,29.82,29.47,9,3,23,0.01
2013-1-18,43.8,39.3,37.0,39.9,36.6,34.3,94,90,86,29.46,29.17,12,6,25,0.26
2013-1-19,40.1,37.2,34.7,38.5,34.7,31.8,94,91,85,29.55,29.24,3,1,12,0.01
2013-1-20,36.2,35.8,34.8,32.5,31.2,30.0,87,84,79,29.53,29.34,5,1,9,0.00
2013-1-21,36.5,34.9,32.3,35.2,32.8,29.6,96,92,85,29.34,29.30,3,0,7,0.03
2013-1-22,35.3,31.1,26.3,33.5,29.4,24.8,96,94,91,29.71,29.33,2,0,5,0.00
2013-1-23,40.1,36.1,31.2,35.3,33.3,29.9,96,89,81,29.81,29.68,3,1,12,0.00
2013-1-24,42.5,38.8,34.8,38.9,35.8,32.7,94,89,84,29.96,29.83,8,2,17,0.00
2013-1-25,47.4,44.6,41.4,46.0,42.2,37.8,95,91,87,29.87,29.31,13,7,27,0.54
2013-1-26,52.5,43.9,36.3,50.5,41.7,34.2,95,92,87,29.68,28.95,14,7,29,0.07
2013-1-27,52.6,40.5,35.9,50.6,37.8,33.8,94,90,83,29.43,28.96,13,8,37,0.11
2013-1-28,51.2,44.1,35.6,45.8,39.6,32.7,92,85,74,29.51,29.08,22,11,39,0.07
2013-1-29,55.8,48.4,43.8,53.0,45.2,40.1,93,89,82,29.41,29.13,15,8,32,0.11
2013-1-30,46.7,44.2,41.3,43.1,40.0,36.8,92,85,75,29.80,29.31,18,9,35,0.05
2013-1-31,48.8,44.4,40.7,44.3,39.4,37.4,91,82,73,29.74,29.50,15,10,35,0.15